This demonstration page uses our WeatherBlox Daily Observations layout. Learn more.

Left ArrowRight Arrow

44.8408, -93.29828

Hourly Observations for May 3, 2015

Temp ( °F °C ) Dew Point ( °F °C ) Humidity (%) Winds ( mph kmh ) Pressure ( in mb ) Visibility ( mi km ) Precip ( " mm )
12:53 am 00:53 Clear 66 18.9 51 10.6 59 59 S 12 19 29.78 1008 10 16 0.00 0.00
1:53 am 01:53 Clear 64 17.8 52 11.1 65 65 S 14 22 29.75 1008 10 16 0.00 0.00
2:53 am 02:53 Clear 62 16.7 51 10.6 67 67 S 14 22 29.75 1007 10 16 0.00 0.00
3:53 am 03:53 Partly Cloudy 60 15.6 51 10.6 72 72 SSE 7 11 29.76 1008 10 16 0.00 0.00
4:53 am 04:53 Partly Cloudy 56 13.3 50 10 81 81 Calm 29.77 1008 10 16 0.00 0.00
5:53 am 05:53 Mostly Cloudy 57 13.9 50 10 78 78 SE 5 7 29.77 1008 10 16 0.00 0.00
6:53 am 06:53 Mostly Cloudy 58 14.4 50 10 75 75 E 3 6 29.76 1008 10 16 0.00 0.00
7:53 am 07:53 Mostly Cloudy 58 14.4 50 10 75 75 SSE 9 15 29.76 1008 10 16 0.00 0.00
8:53 am 08:53 Mostly Cloudy 61 16.1 51 10.6 70 70 S 8 13 29.78 1008 10 16 0.00 0.00
9:53 am 09:53 Mostly Cloudy 64 17.8 52 11.1 65 65 SSE 13 20 29.76 1008 10 16 0.00 0.00
10:53 am 10:53 Mostly Cloudy 71 21.7 55 12.8 57 57 VRB 3 6 29.77 1008 10 16 0.00 0.00
11:53 am 11:53 Mostly Cloudy 74 23.3 55 12.8 52 52 Calm 29.77 1008 10 16 0.00 0.00
12:53 pm 12:53 Partly Cloudy 76 24.4 55 12.8 48 48 VRB 3 6 29.77 1008 10 16 0.00 0.00
1:53 pm 13:53 Partly Cloudy 80 26.7 56 13.3 44 44 SSE 7 11 29.75 1008 10 16 0.00 0.00
2:53 pm 14:53 Partly Cloudy 81 27.2 54 12.2 39 39 VRB 3 6 29.74 1007 10 16 0.00 0.00
3:53 pm 15:53 Partly Cloudy 81 27.2 52 11.1 37 37 NE 5 7 29.74 1007 10 16 0.00 0.00
4:32 pm 16:32 Mostly Cloudy with Nearby Thunderstorms 79 26 52 11 39 39 N 8 13 29.68 1005 10 16 0.00 0.00
4:53 pm 16:53 Mostly Cloudy with Nearby Thunderstorms 74 23.3 59 15 60 60 N 10 17 29.73 1007 7 11 0.00 0.03
4:55 pm 16:55 Mostly Cloudy with Thunderstorms 75 24 59 15 57 57 N 9 15 29.71 1006 7 11 0.00 0.00
5:20 pm 17:20 Mostly Cloudy with Nearby Thunderstorms 74 23.3 58 14.4 57 57 NW 22 35 29.74 1007 10 16 0.01 0.25
5:53 pm 17:53 Cloudy with Nearby Thunderstorms 63 17.2 55 12.8 76 76 NNW 18 30 29.81 1010 10 16 0.01 0.25
6:21 pm 18:21 Mostly Cloudy 65 18.3 52 11.1 63 63 N 13 20 29.83 1010 10 16 0.00 0.00
6:53 pm 18:53 Mostly Cloudy with Nearby Thunderstorms 65 18.3 52 11.1 63 63 N 14 22 29.81 1009 10 16 0.00 0.00
7:05 pm 19:05 Mostly Cloudy with Thunderstorms 65 18.3 53 11.7 66 66 VRB 7 11 29.83 1010 9 14 0.00 0.03
7:46 pm 19:46 Mostly Cloudy 64 18 48 9 56 56 N 10 17 29.83 1010 10 16 0.00 0.00
7:53 pm 19:53 Mostly Cloudy 64 17.8 48 8.9 56 56 N 8 13 29.83 1010 10 16 0.04 1.02
8:53 pm 20:53 Mostly Cloudy 63 17.2 46 7.8 54 54 NNE 9 15 29.86 1011 10 16 0.00 0.00
9:53 pm 21:53 Cloudy 63 17.2 44 6.7 50 50 NNE 10 17 29.88 1012 10 16 0.00 0.00
10:53 pm 22:53 Cloudy 61 16.1 45 7.2 56 56 NNW 8 13 29.91 1013 10 16 0.00 0.00
11:53 pm 23:53 Cloudy 59 15 45 7.2 60 60 NNW 6 9 29.93 1013 10 16 0.00 0.00

Powered by AerisWeather